| time (UTC) | temp F | wind direction | speed knots | gust knots | rain 1hr in | rain 24hr in | rain mn in | humidity % | barometer mb |
| 20260507071528 | 52 | 227 | 0.0 | 0.9 | 0.00 | 0.00 | 0.00 | 89 | 1006.6 |
| 20260507070031 | 52 | 226 | 0.0 | 0.0 | 0.00 | 0.00 | 0.00 | 90 | 1006.7 |
| 20260507064539 | 52 | 226 | 0.0 | 1.7 | 0.00 | 0.00 | 0.00 | 90 | 1006.6 |
| 20260507063020 | 53 | 216 | 0.0 | 0.0 | 0.00 | 0.00 | 0.00 | 91 | 1006.7 |
| 20260507061524 | 53 | 227 | 0.0 | 1.7 | 0.00 | 0.00 | 0.00 | 91 | 1006.6 |
| 20260507060026 | 53 | 213 | 0.0 | 0.9 | 0.00 | 0.00 | 0.00 | 91 | 1006.7 |
| 20260507054527 | 54 | 215 | 0.0 | 1.7 | 0.00 | 0.00 | 0.00 | 90 | 1006.8 |
| 20260507053026 | 54 | 219 | 0.0 | 1.7 | 0.00 | 0.00 | 0.00 | 91 | 1007.0 |
| 20260507051524 | 55 | 234 | 0.9 | 3.5 | 0.00 | 0.00 | 0.00 | 91 | 1006.8 |
| 20260507050037 | 55 | 218 | 0.0 | 3.5 | 0.00 | 0.00 | 0.00 | 91 | 1006.9 |
| 20260507044529 | 56 | 217 | 0.0 | 1.7 | 0.00 | 0.00 | 0.00 | 93 | 1007.0 |
| 20260507043026 | 57 | 278 | 0.0 | 0.9 | 0.00 | 0.00 | 0.00 | 93 | 1006.9 |
| 20260507041529 | 57 | 180 | 0.0 | 1.7 | 0.00 | 0.00 | 0.00 | 93 | 1006.9 |
| 20260507040026 | 57 | 186 | 0.0 | 1.7 | 0.00 | 0.00 | 0.00 | 94 | 1007.0 |
| 20260507034526 | 58 | 181 | 0.9 | 1.7 | 0.00 | 0.00 | 0.00 | 94 | 1006.8 |
| 20260507033028 | 58 | 180 | 0.0 | 0.9 | 0.00 | 0.00 | 0.00 | 93 | 1006.5 |
| 20260507031525 | 58 | 180 | 0.9 | 3.5 | 0.00 | 0.00 | 0.00 | 93 | 1006.5 |
| 20260507030029 | 58 | 188 | 0.9 | 2.6 | 0.00 | 0.00 | 0.00 | 92 | 1006.1 |
| 20260507024530 | 58 | 159 | 0.9 | 2.6 | 0.00 | 0.00 | 0.00 | 93 | 1006.1 |
| 20260507023026 | 58 | 180 | 0.9 | 5.2 | 0.00 | 0.00 | 0.00 | 93 | 1006.4 |
| 20260507021527 | 58 | 184 | 0.9 | 2.6 | 0.00 | 0.00 | 0.00 | 93 | 1006.3 |
| 20260507020029 | 58 | 190 | 0.0 | 1.7 | 0.00 | 0.00 | 0.00 | 93 | 1006.1 |
| 20260507014521 | 57 | 188 | 0.9 | 2.6 | 0.00 | 0.00 | 0.00 | 93 | 1006.2 |
| 20260507013025 | 57 | 171 | 0.0 | 2.6 | 0.00 | 0.00 | 0.00 | 93 | 1006.2 |
| 20260507011512 | 57 | 221 | 0.0 | 2.6 | 0.00 | 0.00 | 0.00 | 93 | 1006.3 |
| 20260507010021 | 57 | 156 | 0.9 | 2.6 | 0.00 | 0.00 | 0.00 | 93 | 1006.4 |
| 20260507004522 | 57 | 202 | 0.9 | 4.3 | 0.00 | 0.00 | 0.00 | 93 | 1006.5 |
| 20260507003025 | 57 | 195 | 0.0 | 3.5 | 0.00 | 0.00 | 0.00 | 93 | 1006.5 |
| 20260507001513 | 58 | 186 | 0.9 | 2.6 | 0.00 | 0.00 | 0.00 | 93 | 1006.5 |
| 20260507000012 | 58 | 195 | 0.9 | 5.2 | 0.00 | 0.00 | 0.00 | 93 | 1006.2 |
| 20260506234521 | 58 | 190 | 0.9 | 3.5 | 0.00 | 0.00 | 0.00 | 93 | 1006.1 |
| 20260506233024 | 58 | 196 | 0.9 | 2.6 | 0.00 | 0.00 | 0.00 | 93 | 1006.1 |
| 20260506231527 | 58 | 197 | 0.9 | 3.5 | 0.00 | 0.00 | 0.00 | 92 | 1006.0 |
| 20260506230022 | 58 | 207 | 1.7 | 3.5 | 0.00 | 0.00 | 0.00 | 92 | 1006.2 |
| 20260506224518 | 58 | 205 | 0.9 | 5.2 | 0.00 | 0.00 | 0.00 | 92 | 1006.1 |
| 20260506223021 | 59 | 238 | 0.9 | 3.5 | 0.00 | 0.00 | 0.00 | 92 | 1006.2 |
| 20260506221504 | 59 | 240 | 0.0 | 3.5 | 0.00 | 0.00 | 0.00 | 91 | 1006.4 |
| 20260506220015 | 59 | 169 | 0.0 | 4.3 | 0.00 | 0.00 | 0.00 | 90 | 1006.5 |
| 20260506214517 | 60 | 193 | 1.7 | 3.5 | 0.00 | 0.00 | 0.00 | 88 | 1006.8 |
| 20260506213018 | 60 | 212 | 1.7 | 5.2 | 0.00 | 0.00 | 0.00 | 88 | 1007.0 |
| 20260506211529 | 60 | 185 | 0.9 | 4.3 | 0.00 | 0.00 | 0.00 | 87 | 1007.0 |
| 20260506210008 | 60 | 183 | 0.9 | 5.2 | 0.00 | 0.00 | 0.00 | 87 | 1006.9 |
| 20260506204514 | 60 | 159 | 1.7 | 7.0 | 0.00 | 0.00 | 0.00 | 86 | 1007.1 |
| 20260506203017 | 60 | 99 | 1.7 | 7.8 | 0.00 | 0.00 | 0.00 | 87 | 1007.1 |
| 20260506201529 | 60 | 167 | 0.0 | 3.5 | 0.00 | 0.00 | 0.00 | 87 | 1007.2 |
| 20260506200026 | 61 | 176 | 0.0 | 1.7 | 0.00 | 0.00 | 0.00 | 87 | 1007.1 |
| 20260506194512 | 62 | 157 | 1.7 | 4.3 | 0.00 | 0.00 | 0.00 | 83 | 1007.2 |
| 20260506193022 | 63 | 184 | 1.7 | 3.5 | 0.00 | 0.00 | 0.00 | 80 | 1007.3 |
| 20260506191519 | 64 | 162 | 1.7 | 4.3 | 0.00 | 0.00 | 0.00 | 77 | 1007.3 |
| 20260506190027 | 66 | 183 | 0.9 | 8.7 | 0.00 | 0.00 | 0.00 | 71 | 1007.2 |
| 20260506184525 | 67 | 217 | 1.7 | 8.7 | 0.00 | 0.00 | 0.00 | 67 | 1007.4 |
| 20260506183013 | 68 | 155 | 2.6 | 9.6 | 0.00 | 0.00 | 0.00 | 62 | 1007.5 |
| 20260506181519 | 70 | 243 | 2.6 | 8.7 | 0.00 | 0.00 | 0.00 | 59 | 1007.3 |
| 20260506180025 | 71 | 207 | 1.7 | 10.4 | 0.00 | 0.00 | 0.00 | 55 | 1007.6 |
| 20260506174531 | 71 | 184 | 1.7 | 9.6 | 0.00 | 0.00 | 0.00 | 55 | 1007.6 |
| 20260506173011 | 72 | 179 | 1.7 | 7.8 | 0.00 | 0.00 | 0.00 | 56 | 1007.8 |
| 20260506171530 | 72 | 192 | 0.9 | 5.2 | 0.00 | 0.00 | 0.00 | 59 | 1007.7 |
| 20260506170021 | 71 | 148 | 0.9 | 6.1 | 0.00 | 0.00 | 0.00 | 59 | 1007.9 |
| 20260506164524 | 71 | 188 | 0.0 | 2.6 | 0.00 | 0.00 | 0.00 | 59 | 1008.1 |
| 20260506163030 | 71 | 167 | 0.9 | 3.5 | 0.00 | 0.00 | 0.00 | 58 | 1008.2 |
| 20260506161514 | 71 | 167 | 1.7 | 7.8 | 0.00 | 0.00 | 0.00 | 57 | 1008.7 |
| 20260506160018 | 71 | 165 | 0.9 | 6.1 | 0.00 | 0.00 | 0.00 | 57 | 1008.8 |
| 20260506154525 | 71 | 210 | 4.3 | 13.9 | 0.00 | 0.00 | 0.00 | 56 | 1009.1 |
| 20260506153026 | 72 | 230 | 1.7 | 3.5 | 0.00 | 0.00 | 0.00 | 57 | 1009.3 |
| 20260506151527 | 72 | 233 | 0.9 | 7.0 | 0.00 | 0.00 | 0.00 | 58 | 1009.4 |
| 20260506150016 | 71 | 195 | 0.9 | 5.2 | 0.00 | 0.00 | 0.00 | 61 | 1009.5 |
| 20260506144519 | 70 | 231 | 0.9 | 4.3 | 0.00 | 0.00 | 0.00 | 63 | 1009.5 |
| 20260506143023 | 69 | 217 | 0.9 | 8.7 | 0.00 | 0.00 | 0.00 | 65 | 1009.5 |
| 20260506141528 | 69 | 198 | 1.7 | 4.3 | 0.00 | 0.00 | 0.00 | 64 | 1009.3 |
| 20260506140033 | 68 | 155 | 0.9 | 4.3 | 0.00 | 0.00 | 0.00 | 66 | 1009.6 |
| 20260506134521 | 66 | 193 | 0.0 | 4.3 | 0.00 | 0.00 | 0.00 | 69 | 1009.5 |
| 20260506133029 | 65 | 164 | 0.0 | 2.6 | 0.00 | 0.00 | 0.00 | 72 | 1010.0 |
| 20260506131526 | 64 | 166 | 1.7 | 7.8 | 0.00 | 0.00 | 0.00 | 72 | 1010.1 |
| 20260506130010 | 64 | 189 | 0.9 | 5.2 | 0.00 | 0.00 | 0.00 | 72 | 1009.9 |
| 20260506124520 | 64 | 205 | 0.9 | 7.0 | 0.00 | 0.00 | 0.00 | 74 | 1009.8 |
| 20260506123020 | 62 | 244 | 0.9 | 5.2 | 0.00 | 0.00 | 0.00 | 76 | 1010.2 |
| 20260506121525 | 62 | 193 | 0.9 | 4.3 | 0.00 | 0.00 | 0.00 | 75 | 1010.2 |
| 20260506120029 | 61 | 194 | 0.0 | 7.0 | 0.00 | 0.00 | 0.00 | 77 | 1010.3 |
| 20260506114531 | 61 | 197 | 0.9 | 5.2 | 0.00 | 0.00 | 0.00 | 77 | 1010.4 |
| 20260506113020 | 61 | 195 | 1.7 | 4.3 | 0.00 | 0.00 | 0.00 | 77 | 1010.8 |
| 20260506111523 | 61 | 204 | 0.9 | 2.6 | 0.00 | 0.00 | 0.00 | 77 | 1010.3 |
| 20260506110032 | 60 | 176 | 1.7 | 5.2 | 0.00 | 0.00 | 0.00 | 78 | 1010.6 |
| 20260506104531 | 59 | 195 | 0.0 | 2.6 | 0.00 | 0.00 | 0.00 | 80 | 1010.6 |
| 20260506103020 | 59 | 238 | 0.0 | 4.3 | 0.00 | 0.00 | 0.00 | 79 | 1010.6 |
| 20260506101521 | 59 | 188 | 0.9 | 2.6 | 0.00 | 0.00 | 0.00 | 79 | 1010.6 |
| 20260506100027 | 59 | 185 | 0.0 | 4.3 | 0.00 | 0.00 | 0.00 | 78 | 1010.5 |
| 20260506094513 | 59 | 226 | 0.0 | 2.6 | 0.00 | 0.00 | 0.00 | 79 | 1010.2 |
| 20260506093016 | 59 | 194 | 0.0 | 3.5 | 0.00 | 0.00 | 0.00 | 78 | 1010.5 |
| 20260506091521 | 59 | 162 | 0.9 | 4.3 | 0.00 | 0.00 | 0.00 | 78 | 1010.4 |
| 20260506090022 | 60 | 187 | 0.9 | 6.1 | 0.00 | 0.00 | 0.00 | 77 | 1010.4 |
| 20260506084510 | 60 | 176 | 0.0 | 5.2 | 0.00 | 0.00 | 0.00 | 76 | 1010.6 |
| 20260506083013 | 60 | 156 | 0.9 | 3.5 | 0.00 | 0.00 | 0.00 | 75 | 1010.4 |
| 20260506081516 | 60 | 156 | 1.7 | 5.2 | 0.00 | 0.00 | 0.00 | 75 | 1010.3 |
| 20260506073014 | 61 | 187 | 0.9 | 4.3 | 0.00 | 0.00 | 0.00 | 72 | 1010.2 |